Location: Arran
(51.9410°N, 101.7372°W)
Time: 10:59:11
(UTC+00:00)

Oscar 19 - Pass Details

Date: 05 December 2023
Orbit: 771 x 789 km, 98.9° (Epoch: 01 March)

Event Time Altitude Azimuth Distance (km) Brightness Sun altitude
Rises 11:58:58 0° 14° (NNE) 3,273 14.0 -23.3°
Reaches altitude 10° 12:01:17 10° 13° (NNE) 2,343 13.2 -22.9°
Maximum altitude 12:06:26 76° 289° (WNW) 811 10.5 -22.1°
Drops below altitude 10° 12:11:35 10° 204° (SSW) 2,338 13.0 -21.3°
Sets 12:13:54 0° 203° (SSW) 3,265 13.7 -21.0°
